Location: Forcarei
(42.5879°N, 8.3520°W)
Time: 06:59:03
(UTC+01:00)

ISS - Visible Passes

Search period start: 11 December 2017 00:00
Search period end: 21 December 2017 00:00
Orbit: 402 x 407 km, 51.6° (Epoch: 11 December)

Date Brightness Start Highest point End Pass type
(mag) Time Alt. Az. Time Alt. Az. Time Alt. Az.
11 Dec -2.8 19:46:03 10° NW 19:48:28 33° N 19:48:28 33° N visible
12 Dec -2.6 18:53:55 10° NW 18:56:46 27° NNE 18:58:40 16° ENE visible
12 Dec -1.2 20:30:12 10° WNW 20:31:21 20° WNW 20:31:21 20° WNW visible
13 Dec -4.0 19:37:55 10° NW 19:41:12 77° NNE 19:41:44 58° E visible
14 Dec -3.4 18:45:42 10° NW 18:48:53 44° NNE 18:52:03 10° ESE visible
14 Dec -1.6 20:22:29 10° W 20:25:04 24° SW 20:25:04 24° SW visible
15 Dec -2.8 19:29:54 10° WNW 19:33:03 45° SW 19:36:02 11° SSE visible
16 Dec -3.8 18:37:31 10° WNW 18:40:48 87° SW 18:44:05 10° SE visible
16 Dec -0.4 20:16:05 10° WSW 20:16:47 11° SW 20:17:29 10° SW visible
17 Dec -1.0 19:22:15 10° W 19:24:43 20° SW 19:27:10 10° S visible
18 Dec -2.0 18:29:29 10° WNW 18:32:32 36° SW 18:35:35 10° SSE visible
